Location: Catstown
(52.4386°N, 7.2633°W)
Time: 13:01:58
(UTC+00:00)

Cosmos 2263 Rocket - Pass Details

Date: 18 September 2020
Orbit: 822 x 850 km, 71.0° (Epoch: 25 October)

Event Time Altitude Azimuth Distance (km) Brightness Sun altitude
Rises 19:30:59 0° 203° (SSW) 3,347 5.4 -9.1°
Reaches altitude 10° 19:33:24 10° 201° (SSW) 2,420 4.7 -9.5°
Maximum altitude 19:38:55 75° 118° (ESE) 859 2.1 -10.3°
Drops below altitude 10° 19:44:31 10° 33° (NNE) 2,449 4.5 -11.1°
Sets 19:46:59 0° 32° (NNE) 3,391 5.2 -11.4°
